Tracking 34223 objects as of 31-May-2026
HD Live streaming from Space Station
objects crossing your sky now

COSMOS 2535

Track COSMOS 2535 now!
10-day predictions


NORAD ID: 44421
Int'l Code: 2019-039A
Perigee: 594.5 km
Apogee: 603.8 km
Inclination: 97.6 °
Period: 96.5 minutes
Semi major axis: 6970 km
RCS: Unknown
Launch date: July 10, 2019
Source: Commonwealth of Independent States (former USSR) (CIS)
Launch site: PLESETSK MISSILE AND SPACE COMPLEX (PKMTR)
Your satellite tracking list
Your tracking list is empty




NASA's NSSDC Master Catalog

Two Line Element Set (TLE):
1 44421U 19039A   26151.17387981  .00001374  00000-0  14120-3 0  9992
2 44421  97.5767 179.9886 0006658 269.2643  90.7814 14.91904055374105
Source of the keplerian elements: AFSPC